Location: Monroe
(41.9160°N, 83.3980°W)
Time: 09:08:07
(UTC-05:00)

Amateur Radio Satellites - All Passes

Search period start: 15 December 2017 08:38
Search period end: 16 December 2017 08:38
Location: Monroe, 41.9160°N, 83.3980°W

Satellite Date Start Highest point End Downlink Frequencies (MHz)
Time Altitude Azimuth
AO-73 15 Dec 08:47:58 08:52:21 75° 102° (ESE) 08:56:48 145.935
NO-84 15 Dec 08:53:57 08:55:49 14° 342° (NNW) 08:57:46 435.350 FM
PRISM 15 Dec 09:06:00 09:08:08 14° 63° (ENE) 09:10:17 437.425
XW-2A 15 Dec 09:08:13 09:11:08 26° 289° (WNW) 09:14:03 145.665 - 145.685
DELFI C3 15 Dec 09:24:11 09:27:17 22° 94° (E) 09:30:21 145.870
Max Valier Satellite 15 Dec 09:26:55 09:29:10 15° 92° (E) 09:31:27 145.860
UWE-3 15 Dec 09:27:55 09:31:05 20° 293° (WNW) 09:34:18 435.000/436.395/437.385
CUBEBUG 2 15 Dec 09:31:09 09:32:31 11° 298° (WNW) 09:33:54 437.445
ZACube-1 15 Dec 09:51:24 09:54:42 21° 293° (WNW) 09:58:03 437.345
EO-88 15 Dec 09:52:55 09:55:45 21° 94° (E) 09:58:35 145.990 - 145.960
O/OREOS (USA 219) 15 Dec 09:55:06 09:58:49 24° 303° (WNW) 10:02:31 437.305
AIST 2D 15 Dec 10:00:56 10:03:03 15° 67° (ENE) 10:05:10 435.315
FO-29 15 Dec 10:07:00 10:11:36 17° 274° (W) 10:16:16 435.910
TIGRISAT 15 Dec 10:09:24 10:13:24 38° 262° (W) 10:17:24 435.000
Oscar 11 15 Dec 10:09:52 10:13:18 23° 293° (WNW) 10:16:44 .
UNISAT 6 15 Dec 10:13:04 10:16:55 32° 263° (W) 10:20:46 437.425
HO-68 15 Dec 10:17:25 10:19:46 12° 312° (NW) 10:22:09 435.675
AO-73 15 Dec 10:26:36 10:27:59 11° 298° (WNW) 10:29:23 145.935
NANOSAT C BR1 15 Dec 10:28:39 10:30:07 12° 62° (ENE) 10:31:34 145.865
PRISM 15 Dec 10:38:52 10:42:56 54° 259° (W) 10:47:02 437.425
EO-79 15 Dec 10:42:46 10:45:42 19° 66° (ENE) 10:48:39 145.935-145.965
ESTCUBE 1 15 Dec 10:48:25 10:49:40 11° 89° (E) 10:50:54 437.505/2401.250
nSIGHT-1 15 Dec 10:55:16 10:57:54 24° 135° (SE) 11:00:33 .
DELFI C3 15 Dec 10:58:38 11:01:59 27° 291° (WNW) 11:05:19 145.870
Max Valier Satellite 15 Dec 10:59:41 11:03:06 35° 288° (WNW) 11:06:30 145.860
POLYITAN 1 15 Dec 11:05:03 11:08:45 32° 70° (ENE) 11:12:29 437.675
EO-88 15 Dec 11:26:18 11:29:21 24° 290° (WNW) 11:32:21 145.990 - 145.960
QB50P2 15 Dec 11:30:16 11:34:26 70° 75° (ENE) 11:38:37 145.880/145.840
AIST 2D 15 Dec 11:32:46 11:35:56 32° 263° (W) 11:39:08 435.315
DUCHIFAT 1 15 Dec 11:34:20 11:38:22 51° 73° (ENE) 11:42:25 145.980
ISS 15 Dec 11:39:10 11:42:21 49° 140° (SE) 11:45:33 437.550
LO-87 15 Dec 11:53:54 11:57:27 86° 100° (E) 12:01:00 145.935 - 145.965
Oscar 19 15 Dec 12:00:35 12:04:03 19° 62° (ENE) 12:07:33 437.125/150
NANOSAT C BR1 15 Dec 12:01:06 12:05:15 66° 258° (WSW) 12:09:25 145.865
NO-84 15 Dec 12:10:06 12:12:47 19° 24° (NNE) 12:15:36 435.350 FM
BUGSAT 1 15 Dec 12:12:24 12:15:59 31° 70° (ENE) 12:19:33 437.445
EO-79 15 Dec 12:17:17 12:21:11 38° 262° (W) 12:25:06 145.935-145.965
VELOX 1 15 Dec 12:17:42 12:20:03 14° 91° (E) 12:22:22 145.980
YUBILEINY 15 Dec 12:19:44 12:22:46 12° 54° (NE) 12:25:47 435.215
ESTCUBE 1 15 Dec 12:22:24 12:26:57 72° 285° (WNW) 12:31:27 437.505/2401.250
nSIGHT-1 15 Dec 12:30:53 12:33:58 42° 332° (NNW) 12:37:03 .
RS-15 15 Dec 12:31:51 12:35:19 12° 92° (E) 12:38:47 29.354- 29.394
POLYITAN 1 15 Dec 12:41:21 12:44:34 21° 266° (W) 12:47:48 437.675
Gurwin Techsat 1B 15 Dec 12:47:00 12:51:48 36° 68° (ENE) 12:56:37 435.225
AO-91 15 Dec 12:50:12 12:54:53 47° 73° (ENE) 12:59:07 145.960
SPROUT 15 Dec 12:50:56 12:55:07 56° 101° (E) 12:59:16 437.525
DX 1 15 Dec 13:12:02 13:13:07 11° 90° (E) 13:14:12 434.975-435.025
DUCHIFAT 1 15 Dec 13:12:20 13:14:19 13° 269° (W) 13:16:17 145.980
ISS 15 Dec 13:16:05 13:18:58 27° 338° (NNW) 13:21:51 437.550
Oscar 19 15 Dec 13:37:51 13:42:54 59° 259° (W) 13:48:00 437.125/150
AO-7 15 Dec 13:44:08 13:51:12 33° 57° (ENE) 13:58:18 .
NO-84 15 Dec 13:46:41 13:50:28 88° 51° (NE) 13:54:32 435.350 FM
BUGSAT 1 15 Dec 13:48:22 13:51:22 20° 266° (W) 13:54:23 437.445
VELOX 1 15 Dec 13:52:30 13:56:48 53° 287° (WNW) 14:01:04 145.980
nSIGHT-1 15 Dec 14:08:42 14:10:48 16° 351° (N) 14:12:54 .
YUBILEINY 15 Dec 14:13:01 14:21:45 60° 77° (ENE) 14:30:23 435.215
SO-50 15 Dec 14:19:54 14:20:23 10° 107° (ESE) 14:20:52 436.795
50 SAT 15 Dec 14:21:26 14:24:36 79° 103° (ESE) 14:27:44 437.505
Gurwin Techsat 1B 15 Dec 14:27:08 14:31:45 30° 264° (W) 14:36:23 435.225
UKube-1 15 Dec 14:27:55 14:32:05 46° 100° (E) 14:36:12 .
AO-91 15 Dec 14:28:06 14:31:25 18° 266° (W) 14:34:34 145.960
SPROUT 15 Dec 14:28:20 14:30:32 14° 297° (WNW) 14:32:42 437.525
RS-15 15 Dec 14:33:07 14:45:02 60° 113° (ESE) 14:56:54 29.354- 29.394
M-CUBED/EXP-1 PRIME 15 Dec 14:42:29 14:46:44 56° 68° (ENE) 14:51:14 437.505
DX 1 15 Dec 14:45:25 14:49:44 68° 287° (WNW) 14:54:02 434.975-435.025
BEESAT 15 Dec 14:50:01 14:51:59 12° 90° (E) 14:53:56 436.000
ITAMSAT 1 15 Dec 14:52:00 14:56:52 41° 69° (ENE) 15:01:44 435.822/435.867
ISS 15 Dec 14:54:14 14:56:15 15° 358° (N) 14:58:17 437.550
ITUPSAT 1 15 Dec 15:17:25 15:21:15 24° 95° (E) 15:25:04 437.325
NO-84 15 Dec 15:25:39 15:27:20 12° 236° (SW) 15:29:02 435.350 FM
AO-7 15 Dec 15:35:18 15:43:28 62° 256° (WSW) 15:51:44 .
DOVE 4 15 Dec 15:37:48 15:41:53 23° 66° (ENE) 15:45:52 437.250
nSIGHT-1 15 Dec 15:45:42 15:47:56 17° 12° (NNE) 15:50:09 .
CUBESAT XI-V 15 Dec 15:46:07 15:49:19 18° 92° (E) 15:52:31 437.345
SO-50 15 Dec 15:55:38 16:00:06 84° 304° (NW) 16:04:38 436.795
MOZHAYETS 4 15 Dec 15:56:20 16:00:58 88° 297° (WNW) 16:05:37
UKube-1 15 Dec 16:04:57 16:07:43 17° 296° (WNW) 16:10:27 .
YUBILEINY 15 Dec 16:10:41 16:17:56 30° 278° (W) 16:25:09 435.215
M-CUBED/EXP-1 PRIME 15 Dec 16:18:55 16:21:27 15° 265° (W) 16:24:03 437.505
BEESAT 15 Dec 16:25:28 16:30:13 70° 286° (WNW) 16:34:57 436.000
CUTE-I 15 Dec 16:27:24 16:29:54 13° 58° (ENE) 16:32:24 437.470
ISS 15 Dec 16:30:56 16:33:37 22° 18° (NNE) 16:36:17 437.550
ITAMSAT 1 15 Dec 16:32:13 16:36:27 25° 265° (W) 16:40:42 435.822/435.867
XW-2F 15 Dec 16:43:11 16:44:50 13° 64° (ENE) 16:46:31 145.980 - 146.000
RS-15 15 Dec 16:46:06 16:57:56 50° 317° (NW) 17:09:39 29.354- 29.394
ITUPSAT 1 15 Dec 16:54:46 16:59:08 37° 291° (WNW) 17:03:31 437.325
XW-2C 15 Dec 16:58:08 17:00:57 20° 68° (ENE) 17:03:47 145.795 - 145.815
HO-68 15 Dec 17:09:33 17:14:50 23° 57° (ENE) 17:20:07 435.675
DOVE 4 15 Dec 17:14:12 17:19:15 46° 262° (W) 17:24:11 437.250
nSIGHT-1 15 Dec 17:21:30 17:24:41 53° 31° (NNE) 17:27:50 .
CUBESAT XI-V 15 Dec 17:22:23 17:26:55 47° 288° (WNW) 17:31:24 437.345
LilacSat-2 15 Dec 17:34:45 17:38:30 60° 75° (ENE) 17:42:19 437.200
MOZHAYETS 4 15 Dec 17:37:01 17:37:22 10° 301° (WNW) 17:37:45
KKS-1 15 Dec 17:38:51 17:43:09 48° 100° (E) 17:47:25 437.445
SO-50 15 Dec 17:38:53 17:41:16 14° 323° (NW) 17:43:41 436.795
XW-2D 15 Dec 17:47:38 17:51:24 84° 77° (ENE) 17:55:15 145.860 - 145.880
NUDT-PHONESAT 15 Dec 17:47:41 17:51:16 51° 74° (ENE) 17:54:53 437.300
CUTE 1.7 + AOD 2 15 Dec 17:52:16 17:55:37 23° 68° (ENE) 17:59:00 437.475
KAITUO 1B 15 Dec 17:53:11 17:56:53 66° 76° (ENE) 18:00:38 145.475/437.950
XW-2B 15 Dec 18:03:37 18:07:21 64° 259° (W) 18:11:09 145.730 - 145.750
CUTE-I 15 Dec 18:03:47 18:09:10 89° 255° (WSW) 18:14:34 437.470
ISS 15 Dec 18:07:07 18:10:23 77° 219° (SW) 18:13:40 437.550
PCSat 15 Dec 18:14:43 18:19:31 33° 110° (ESE) 18:24:21 145.827
XW-2F 15 Dec 18:14:51 18:18:30 48° 261° (W) 18:22:12 145.980 - 146.000
STARS 15 Dec 18:18:50 18:23:05 51° 100° (E) 18:27:19 437.465
O/OREOS (USA 219) 15 Dec 18:24:25 18:28:56 76° 67° (ENE) 18:33:23 437.305
XW-2C 15 Dec 18:31:39 18:34:56 28° 264° (W) 18:38:16 145.795 - 145.815
UWE-3 15 Dec 18:48:20 18:51:57 30° 70° (ENE) 18:55:35 435.000/436.395/437.385
CUBEBUG 2 15 Dec 18:50:26 18:54:34 58° 75° (ENE) 18:58:39 437.445
HO-68 15 Dec 18:54:37 19:01:49 77° 255° (WSW) 19:09:03 435.675
nSIGHT-1 15 Dec 18:58:21 19:00:37 18° 227° (SW) 19:02:52 .
SEEDS 15 Dec 19:01:43 19:05:56 81° 74° (ENE) 19:10:12 437.485
RS-15 15 Dec 19:04:57 19:14:25 25° 349° (NNW) 19:23:40 29.354- 29.394
ZACube-1 15 Dec 19:10:57 19:14:28 28° 69° (ENE) 19:18:01 437.345
KKS-1 15 Dec 19:16:28 19:19:18 17° 297° (WNW) 19:22:09 437.445
AAUSAT CUBESAT 2 15 Dec 19:17:22 19:21:24 51° 73° (ENE) 19:25:28 437.432
NUDT-PHONESAT 15 Dec 19:24:58 19:25:25 10° 270° (W) 19:25:51 437.300
CUTE 1.7 + AOD 2 15 Dec 19:27:29 19:31:17 31° 264° (W) 19:35:06 437.475
Oscar 11 15 Dec 19:28:33 19:32:08 26° 68° (ENE) 19:35:46 .
FO-29 15 Dec 19:31:05 19:34:18 14° 84° (E) 19:37:21 435.910
XW-2A 15 Dec 19:38:32 19:41:51 83° 255° (WSW) 19:45:14 145.665 - 145.685
AO-73 15 Dec 19:43:35 19:47:37 56° 74° (ENE) 19:51:41 145.935
STRAND 1 15 Dec 19:48:16 19:53:14 51° 100° (E) 19:58:11 437.568
CUTE-I 15 Dec 19:48:38 19:49:55 11° 272° (W) 19:51:12 437.470
BEESAT 3 15 Dec 19:49:47 19:53:26 36° 116° (ESE) 19:57:08 437.485
STARS 15 Dec 19:56:23 19:59:00 16° 297° (WNW) 20:01:37 437.465
PCSat 15 Dec 19:57:51 20:02:50 37° 308° (NW) 20:07:52 145.827
DELFI C3 15 Dec 20:10:26 20:12:36 14° 65° (ENE) 20:14:46 145.870
UWE-3 15 Dec 20:25:13 20:28:26 22° 266° (W) 20:31:39 435.000/436.395/437.385
CUBEBUG 2 15 Dec 20:30:10 20:31:32 11° 270° (W) 20:32:55 437.445
BEESAT 2 15 Dec 20:32:46 20:36:14 29° 114° (ESE) 20:39:44 435.950
EO-88 15 Dec 20:32:51 20:33:31 10° 63° (ENE) 20:34:09 145.990 - 145.960
ZACube-1 15 Dec 20:47:23 20:50:43 23° 265° (W) 20:54:05 437.345
HO-68 15 Dec 20:47:45 20:50:38 13° 273° (W) 20:53:30 435.675
AAUSAT CUBESAT 2 15 Dec 20:55:03 20:57:08 13° 269° (W) 20:59:14 437.432
Oscar 11 15 Dec 21:04:29 21:08:11 27° 265° (W) 21:11:55 .
AO-85 15 Dec 21:10:04 21:12:36 17° 110° (ESE) 21:15:11 145.980
FO-29 15 Dec 21:13:34 21:20:31 90° 285° (WNW) 21:26:34 435.910
RS-15 15 Dec 21:22:07 21:32:16 30° 24° (NNE) 21:41:58 29.354- 29.394
AO-73 15 Dec 21:22:48 21:24:13 11° 270° (W) 21:25:38 145.935
BEESAT 3 15 Dec 21:27:50 21:31:04 23° 314° (NW) 21:34:18 437.485
STRAND 1 15 Dec 21:28:21 21:32:01 20° 297° (WNW) 21:35:42 437.568
Max Valier Satellite 15 Dec 21:37:53 21:41:32 80° 258° (WSW) 21:45:13 145.860
DELFI C3 15 Dec 21:43:05 21:46:56 47° 261° (W) 21:50:48 145.870
ESTCUBE 1 15 Dec 21:48:28 21:50:06 12° 61° (ENE) 21:51:43 437.505/2401.250
TIGRISAT 15 Dec 21:59:49 22:03:54 38° 98° (E) 22:08:02 435.000
EO-88 15 Dec 22:03:04 22:06:38 55° 260° (W) 22:10:14 145.990 - 145.960
UNISAT 6 15 Dec 22:03:21 22:07:34 46° 99° (E) 22:11:51 437.425
BEESAT 2 15 Dec 22:10:24 22:13:54 28° 312° (NW) 22:17:27 435.950
PRISM 15 Dec 22:20:24 22:23:19 19° 94° (E) 22:26:11 437.425
LO-87 15 Dec 22:29:55 22:33:06 32° 72° (ENE) 22:36:18 145.935 - 145.965
FALCONSAT 3 15 Dec 22:35:28 22:38:17 21° 165° (SSE) 22:41:06 435.103
SO-50 15 Dec 22:47:04 22:49:56 16° 39° (NE) 22:52:49 436.795
AO-85 15 Dec 22:48:50 22:52:34 42° 309° (NW) 22:56:33 145.980
AIST 2D 15 Dec 22:57:32 22:59:54 17° 93° (E) 23:02:15 435.315
FO-29 15 Dec 23:00:15 23:04:25 17° 306° (NW) 23:08:18 435.910
VELOX 1 15 Dec 23:15:27 23:17:53 15° 62° (ENE) 23:20:18 145.980
QB50P2 15 Dec 23:17:05 23:18:10 11° 90° (E) 23:19:13 145.880/145.840
ESTCUBE 1 15 Dec 23:21:43 23:26:14 77° 257° (WSW) 23:30:47 437.505/2401.250
RS-15 15 Dec 23:35:18 23:47:13 74° 54° (NE) 23:58:25 29.354- 29.394
TIGRISAT 15 Dec 23:37:09 23:40:20 20° 294° (WNW) 23:43:32 435.000
UNISAT 6 15 Dec 23:41:06 23:43:55 17° 295° (WNW) 23:46:47 437.425
SPROUT 15 Dec 23:44:09 23:48:10 43° 72° (ENE) 23:52:11 437.525
NANOSAT C BR1 15 Dec 23:45:38 23:48:34 18° 93° (E) 23:51:31 145.865
PRISM 15 Dec 23:54:55 23:58:40 35° 290° (WNW) 00:02:22 437.425
EO-79 16 Dec 00:01:13 00:04:59 31° 97° (E) 00:08:45 145.935-145.965
LO-87 16 Dec 00:04:36 00:06:36 14° 267° (W) 00:08:36 145.935 - 145.965
DX 1 16 Dec 00:08:07 00:09:31 11° 60° (ENE) 00:10:55 434.975-435.025
FALCONSAT 3 16 Dec 00:13:37 00:16:51 29° 180° (S) 00:20:06 435.103
POLYITAN 1 16 Dec 00:24:18 00:28:28 57° 101° (E) 00:32:39 437.675
SO-50 16 Dec 00:26:20 00:31:01 88° 238° (WSW) 00:35:45 436.795
AIST 2D 16 Dec 00:30:00 00:33:06 28° 289° (WNW) 00:36:09 435.315
50 SAT 16 Dec 00:47:55 00:50:24 22° 70° (ENE) 00:52:54 437.505
VELOX 1 16 Dec 00:49:25 00:53:49 59° 259° (W) 00:58:14 145.980
QB50P2 16 Dec 00:50:09 00:54:20 64° 286° (WNW) 00:58:31 145.880/145.840
DUCHIFAT 1 16 Dec 00:52:59 00:57:11 88° 293° (WNW) 01:01:23 145.980
Gurwin Techsat 1B 16 Dec 01:04:25 01:06:48 13° 89° (E) 01:09:11 435.225
NANOSAT C BR1 16 Dec 01:20:31 01:24:24 37° 289° (WNW) 01:28:17 145.865
SPROUT 16 Dec 01:21:34 01:24:14 16° 268° (W) 01:26:55 437.525
UKube-1 16 Dec 01:22:20 01:26:22 41° 71° (ENE) 01:30:27 .
YUBILEINY 16 Dec 01:24:26 01:27:28 12° 73° (ENE) 01:30:29 435.215
MOZHAYETS 4 16 Dec 01:25:42 01:26:17 10° 59° (ENE) 01:26:52
BUGSAT 1 16 Dec 01:28:08 01:32:04 51° 100° (E) 01:36:03 437.445
EO-79 16 Dec 01:37:15 01:40:34 23° 293° (WNW) 01:43:53 145.935-145.965
DX 1 16 Dec 01:40:41 01:45:03 76° 257° (WSW) 01:49:27 434.975-435.025
RS-15 16 Dec 01:48:53 01:58:30 32° 256° (WSW) 02:07:46 29.354- 29.394
Oscar 19 16 Dec 01:48:54 01:53:57 47° 100° (E) 01:58:56 437.125/150
FALCONSAT 3 16 Dec 01:52:38 01:55:26 20° 195° (SSW) 01:58:13 435.103
BEESAT 16 Dec 01:56:24 01:59:21 17° 62° (ENE) 02:02:18 436.000
POLYITAN 1 16 Dec 02:01:39 02:03:46 14° 297° (WNW) 02:05:53 437.675
AO-91 16 Dec 02:16:14 02:19:43 85° 279° (W) 02:23:04 145.960
50 SAT 16 Dec 02:20:07 02:22:18 17° 265° (W) 02:24:28 437.505
ITUPSAT 1 16 Dec 02:24:21 02:28:26 29° 67° (ENE) 02:32:32 437.325
Gurwin Techsat 1B 16 Dec 02:42:00 02:47:20 78° 286° (WNW) 02:52:38 435.225
CUBESAT XI-V 16 Dec 02:49:48 02:53:04 19° 64° (ENE) 02:56:22 437.345
MOZHAYETS 4 16 Dec 02:58:08 03:02:41 89° 260° (W) 03:07:17
UKube-1 16 Dec 02:59:36 03:02:33 18° 267° (W) 03:05:31 .
PCSat 16 Dec 03:01:47 03:06:37 31° 50° (NE) 03:11:24 145.827
BUGSAT 1 16 Dec 03:04:56 03:07:00 14° 296° (WNW) 03:09:05 437.445
ITAMSAT 1 16 Dec 03:06:06 03:08:34 13° 90° (E) 03:11:00 435.822/435.867
YUBILEINY 16 Dec 03:13:45 03:22:27 69° 93° (E) 03:31:13 435.215
Oscar 19 16 Dec 03:28:56 03:32:55 23° 296° (WNW) 03:36:54 437.125/150
BEESAT 16 Dec 03:31:58 03:36:39 58° 259° (W) 03:41:20 436.000
AO-7 16 Dec 03:36:24 03:44:23 45° 100° (E) 03:52:17 .
M-CUBED/EXP-1 PRIME 16 Dec 03:54:55 03:59:06 38° 102° (ESE) 04:03:02 437.505
ITUPSAT 1 16 Dec 04:02:01 04:06:11 30° 264° (W) 04:10:21 437.325
BEESAT 3 16 Dec 04:05:58 04:09:17 25° 47° (NE) 04:12:33 437.485
Gurwin Techsat 1B 16 Dec 04:24:51 04:26:23 11° 303° (WNW) 04:27:54 435.225
CUBESAT XI-V 16 Dec 04:25:35 04:30:04 47° 261° (W) 04:34:36 437.345
KKS-1 16 Dec 04:36:51 04:41:08 47° 71° (ENE) 04:45:24 437.445
ITAMSAT 1 16 Dec 04:43:23 04:48:34 74° 286° (WNW) 04:53:42 435.822/435.867
PCSat 16 Dec 04:45:02 04:50:05 41° 248° (WSW) 04:55:07 145.827
BEESAT 2 16 Dec 04:49:44 04:52:56 22° 45° (NE) 04:56:05 435.950
YUBILEINY 16 Dec 05:12:47 05:19:59 27° 294° (WNW) 05:27:16 435.215
DOVE 4 16 Dec 05:13:03 05:17:22 46° 98° (E) 05:21:26 437.250
STARS 16 Dec 05:15:21 05:19:33 47° 72° (ENE) 05:23:47 437.465
AO-7 16 Dec 05:29:19 05:37:03 44° 299° (WNW) 05:44:47 .
M-CUBED/EXP-1 PRIME 16 Dec 05:29:42 05:33:11 22° 300° (WNW) 05:36:31 437.505
STRAND 1 16 Dec 05:30:28 05:31:07 10° 57° (ENE) 05:31:46 437.568
XW-2B 16 Dec 05:37:08 05:38:55 13° 91° (E) 05:40:41 145.730 - 145.750
AO-85 16 Dec 05:38:40 05:42:33 24° 45° (NE) 05:46:39 145.980
BEESAT 3 16 Dec 05:43:21 05:46:49 30° 245° (WSW) 05:50:13 437.485
FO-29 16 Dec 05:46:50 05:47:44 10° 48° (NE) 05:48:38 435.910
XW-2F 16 Dec 05:47:12 05:49:38 16° 92° (E) 05:52:02 145.980 - 146.000
XW-2C 16 Dec 06:03:21 06:06:40 27° 96° (E) 06:09:58 145.795 - 145.815
KKS-1 16 Dec 06:15:02 06:17:54 17° 268° (W) 06:20:47 437.445
CUTE-I 16 Dec 06:20:44 06:25:37 35° 97° (E) 06:30:26 437.470
HO-68 16 Dec 06:23:14 06:28:18 20° 91° (E) 06:33:20 435.675
ITAMSAT 1 16 Dec 06:26:35 06:27:05 10° 304° (NW) 06:27:36 435.822/435.867
BEESAT 2 16 Dec 06:27:02 06:30:47 39° 244° (WSW) 06:34:28 435.950
NO-84 16 Dec 06:38:46 06:41:43 81° 141° (SE) 06:44:55 435.350 FM
LilacSat-2 16 Dec 06:41:27 06:45:21 88° 100° (E) 06:49:14 437.200
CUBEBUG 2 16 Dec 06:42:19 06:43:56 12° 90° (E) 06:45:34 437.445
SEEDS 16 Dec 06:46:41 06:48:44 13° 90° (E) 06:50:48 437.485
NUDT-PHONESAT 16 Dec 06:50:39 06:54:25 70° 101° (E) 06:58:09 437.300
DOVE 4 16 Dec 06:51:48 06:54:38 17° 297° (WNW) 06:57:21 437.250
STARS 16 Dec 06:53:26 06:56:08 16° 268° (W) 06:58:50 437.465
XW-2D 16 Dec 06:53:33 06:57:23 68° 285° (WNW) 07:01:12 145.860 - 145.880
KAITUO 1B 16 Dec 06:57:24 07:01:13 90° 277° (W) 07:05:00 145.475/437.950
STRAND 1 16 Dec 07:04:18 07:09:24 76° 74° (ENE) 07:14:31 437.568
XW-2B 16 Dec 07:09:37 07:13:19 45° 287° (WNW) 07:16:59 145.730 - 145.750
CUTE 1.7 + AOD 2 16 Dec 07:11:20 07:15:25 41° 98° (E) 07:19:28 437.475
AO-85 16 Dec 07:18:31 07:23:13 52° 242° (WSW) 07:28:14 145.980
XW-2F 16 Dec 07:20:19 07:23:50 35° 288° (WNW) 07:27:20 145.980 - 146.000
FO-29 16 Dec 07:23:34 07:30:55 47° 67° (ENE) 07:38:18 435.910
AO-7 16 Dec 07:26:44 07:27:36 10° 321° (NW) 07:28:28 .
AO-73 16 Dec 07:32:59 07:34:17 11° 89° (E) 07:35:35 145.935
XW-2C 16 Dec 07:37:42 07:40:41 22° 292° (WNW) 07:43:39 145.795 - 145.815
CUTE-I 16 Dec 08:00:56 08:05:32 30° 294° (WNW) 08:10:07 437.470
HO-68 16 Dec 08:09:31 08:16:41 75° 289° (WNW) 08:23:48 435.675
UWE-3 16 Dec 08:12:35 08:16:54 67° 101° (E) 08:21:19 435.000/436.395/437.385
CUBEBUG 2 16 Dec 08:16:40 08:20:54 61° 285° (WNW) 08:25:14 437.445
NO-84 16 Dec 08:17:16 08:19:23 16° 338° (NNW) 08:21:36 435.350 FM
SEEDS 16 Dec 08:20:35 08:24:44 53° 286° (WNW) 08:28:50 437.485
